Location: Newark
(49.3000°N, 9.4667°E)
Time: 23:20:29
(UTC+00:00)

Tiros 1 - Pass Details

Date: 26 May 2019
Orbit: 631 x 664 km, 48.4° (Epoch: 19 June)

Event Time Altitude Azimuth Distance (km) Brightness Sun altitude
Rises 14:54:11 0° 282° (WNW) 2,955 11.3 39.3°
Reaches altitude 10° 14:56:55 10° 267° (W) 2,048 10.9 38.8°
Maximum altitude 15:00:33 22° 217° (SW) 1,409 9.9 38.3°
Drops below altitude 10° 15:04:12 10° 166° (SSE) 2,056 9.8 37.7°
Sets 15:06:57 0° 152° (SSE) 2,970 10.4 37.3°
